Location: Barrialito
(10.1025°N, 66.8154°W)
Time: 15:56:39
(UTC+00:00)

Cosmos 2263 Rocket - Pass Details

Date: 10 September 2024
Orbit: 821 x 849 km, 71.0° (Epoch: 14 October)

Event Time Altitude Azimuth Distance (km) Brightness Sun altitude
Rises 22:43:05 0° 327° (NNW) 3,401 5.9 -3.9°
Reaches altitude 10° 22:45:45 10° 318° (NW) 2,466 5.4 -4.6°
Maximum altitude 22:50:44 32° 256° (WSW) 1,406 4.3 -5.8°
Drops below altitude 10° 22:55:42 10° 194° (SSW) 2,458 4.7 -7.0°
Sets 22:58:23 0° 184° (S) 3,388 5.3 -7.7°
